User: anonymous   Login
Location: Unspecified
(0.0000°N, 0.0000°E)
Time: 15:51:00
(UTC+00:00)
Language:

Explorer 7 - Orbit

View from above orbital plane
View from above orbital plane
View from above satellite
View from above satellite

Ground track
Ground track

The orbit data is extracted from the following two-line orbital elements,

1 00022U 59009A   17055.83518961  .00001241  00000-0  11745-3 0  9995
2 00022  50.2862   8.5407 0142663 324.6345  34.5203 14.93987153 44557
Epoch (UTC): 24 February 2017 20:02:40
Eccentricity: 0.0142663
inclination: 50.2862°
perigee height: 486 km
apogee height: 685 km
right ascension of ascending node: 8.5407°
argument of perigee: 324.6345°
revolutions per day: 14.93987153
mean anomaly at epoch: 34.5203°
orbit number at epoch: 4455

The dashed part of the orbit path shows where the satellite is in the earth's shadow,  

DLR